This demonstration page uses our WeatherBlox Daily Observations layout. Learn more.

Hourly Observations for July 26, 2017

Temp ( °F °C ) Dew Point ( °F °C ) Humidity (%) Winds ( mph kmh ) Pressure ( in mb ) Visibility ( mi km ) Precip ( " mm )
12:53 am 00:53 Clear 66 18.9 61 16.1 84 84 E 5 7 30.18 1022 10 16.0934 0 0
1:53 am 01:53 Clear 63 17.2 61 16.1 93 93 Calm 30.18 1022 10 16.0934 0 0
2:53 am 02:53 Clear 62 16.7 60 15.6 93 93 Calm 30.16 1022 10 16.0934 0 0
3:53 am 03:53 Clear 60 15.6 59 15 96 96 Calm 30.16 1021 10 16.0934 0 0
4:53 am 04:53 Clear 58 14.4 58 14.4 100 100 Calm 30.17 1022 10 16.0934 0 0
5:53 am 05:53 Clear 58 14.4 57 13.9 97 97 Calm 30.16 1021 9 14.48406 0 0
6:53 am 06:53 Sunny with Mist and Fog 57 13.9 57 13.9 100 100 Calm 30.15 1021 5 8.0467 0 0
7:53 am 07:53 Sunny 63 17.2 61 16.1 93 93 Calm 30.16 1021 10 16.0934 0 0
8:53 am 08:53 Sunny 67 19.4 62 16.7 84 84 VRB 3 6 30.16 1022 10 16.0934 0 0
9:53 am 09:53 Sunny 72 22.2 64 17.8 76 76 Calm 30.17 1022 10 16.0934 0 0
10:53 am 10:53 Sunny 75 23.9 65 18.3 71 71 Calm 30.15 1021 10 16.0934 0 0
11:53 am 11:53 Sunny 78 25.6 65 18.3 64 64 Calm 30.15 1021 10 16.0934 0 0
12:53 pm 12:53 Sunny 80 26.7 66 18.9 62 62 ENE 5 7 30.13 1020 10 16.0934 0 0
1:53 pm 13:53 Sunny 82 27.8 64 17.8 55 55 Calm 30.11 1020 10 16.0934 0 0
2:53 pm 14:53 Sunny 84 28.9 65 18.3 53 53 NNE 3 6 30.09 1019 10 16.0934 0 0
3:53 pm 15:53 Sunny 86 30 65 18.3 49 49 Calm 30.07 1018 10 16.0934 0 0
4:53 pm 16:53 Sunny 86 30 67 19.4 53 53 W 6 9 30.05 1018 10 16.0934 0 0
5:53 pm 17:53 Sunny 84 28.9 67 19.4 57 57 undefined N/A 30.04 1017 10 16.0934 0 0
6:53 pm 18:53 Sunny 82 27.8 69 20.6 65 65 WSW 5 7 30.03 1017 10 16.0934 0 0
7:53 pm 19:53 Sunny 78 25.6 72 22.2 82 82 Calm 30.02 1017 10 16.0934 0 0
8:53 pm 20:53 Sunny 74 23.3 71 21.7 91 91 Calm 30.02 1017 9 14.48406 0 0
9:53 pm 21:53 Clear 72 22.2 69 20.6 91 91 Calm 30.02 1017 9 14.48406 0 0
10:53 pm 22:53 Partly Cloudy 73 22.8 70 21.1 90 90 Calm 30.03 1017 9 14.48406 0 0
11:53 pm 23:53 Partly Cloudy 72 22.2 69 20.6 91 91 ESE 3 6 30.02 1017 10 16.0934 0 0

Powered by AerisWeather